Wind_Speed
35 34 31 30 29 28 28 29 29 27 26 25 24 22 21 20 19 18 19 18 16 16 16 17 19 20 22 23 25 27 28 30 32
39 38 35 34 33 33 33 33 32 29 28 28 27 25 24 24 24 23 21 21 21 18 19 20 20 22 23 26 27 28 30 31 32
41 41 40 39 37 36 36 35 34 32 30 30 30 30 27 27 27 26 25 26 24 25 25 24 22 24 25 28 30 31 33 32 32
44 42 40 40 38 37 37 36 37 36 33 33 32 33 31 30 32 30 30 30 28 27 27 29 29 31 33 32 31 32 33 36 36
47 45 44 42 39 38 40 41 41 41 40 39 36 35 35 34 36 35 34 36 33 29 28 29 30 35 38 34 35 35 36 35 37
50 50 49 48 46 44 43 44 44 46 44 43 38 38 36 41 38 34 33 31 32 33 32 32 33 36 33 34 33 30 31 34 36
51 51 52 51 50 49 49 47 46 44 43 44 42 41 40 41 40 36 34 31 31 32 32 31 32 32 33 33 32 30 32 31 33
47 47 48 49 45 45 44 43 45 46 45 45 44 43 42 40 36 33 31 33 33 31 32 31 31 32 31 32 31 31 32 31 30
49 48 48 50 45 43 44 45 45 43 43 43 39 36 36 37 35 37 35 32 32 33 34 32 27 24 22 27 29 31 32 31 30
50 52 50 51 48 46 46 47 43 40 38 39 38 37 35 36 32 29 28 28 30 30 30 26 23 19 21 23 28 27 28 28 31
46 49 50 52 48 42 44 43 41 40 37 39 41 37 31 29 27 24 24 22 21 20 23 22 21 23 24 24 27 31 32 28 29
48 47 48 49 45 43 44 43 44 43 41 37 36 35 33 29 29 27 26 29 26 25 24 25 24 25 26 27 27 27 27 23 26
54 50 49 47 39 40 45 45 49 46 41 39 38 38 38 34 33 31 29 28 27 29 28 26 26 27 27 27 30 25 26 25 26
57 57 54 51 43 42 47 46 46 49 43 43 44 42 42 40 37 35 36 34 31 33 32 32 32 30 31 31 27 27 27 28 31
56 61 59 58 55 48 46 50 49 48 49 50 47 45 45 45 46 41 41 38 38 40 38 39 37 34 32 34 31 29 31 32 34
61 61 64 61 62 60 54 53 56 54 52 52 53 52 49 49 48 46 44 42 41 43 42 43 42 38 34 33 34 35 35 35 37
69 64 65 65 64 64 62 60 56 63 62 60 57 56 55 54 52 50 48 47 46 47 48 47 45 40 39 37 38 38 38 38 40
77 72 68 69 67 68 67 66 65 64 62 63 61 55 54 58 57 55 53 52 53 54 53 49 46 45 42 42 43 44 43 45 46
83 81 76 72 72 70 73 72 70 69 67 66 62 56 52 55 55 57 56 56 55 54 52 50 50 50 49 47 49 50 52 53 51
85 85 84 78 76 75 76 78 77 73 73 70 71 68 63 64 60 58 61 59 61 57 55 56 56 56 55 57 56 56 56 58 58
Wind_Direction
251 249 249 250 258 262 267 274 278 284 288 290 288 297 301 294 298 301 303 306 313 316 322 322 323 321 313 316 317 321 322 327 330
251 249 251 252 254 259 264 268 273 280 284 283 282 282 299 293 291 292 300 297 294 297 305 307 309 310 308 308 309 311 315 319 324
250 252 254 255 255 259 261 265 271 275 275 277 278 275 284 290 292 291 290 294 293 294 298 302 303 305 306 306 307 308 309 312 316
250 252 252 255 256 256 258 262 268 272 271 272 273 273 273 280 286 285 284 284 285 288 291 295 298 300 298 299 300 302 305 308 310
249 253 255 257 260 260 261 265 269 272 271 270 267 266 271 271 279 277 277 281 280 281 285 289 294 297 302 300 302 302 307 310 308
250 253 257 260 262 265 267 270 271 273 273 270 266 263 261 270 274 275 278 279 278 276 279 282 284 292 296 298 298 306 312 314 314
255 256 260 263 266 268 269 269 270 271 269 267 266 264 262 263 268 273 277 278 279 283 284 286 288 292 295 296 300 306 310 311 315
263 261 263 265 268 268 268 267 265 266 268 266 264 264 264 264 268 269 270 275 278 281 282 284 286 290 294 302 305 303 308 309 315
268 265 264 266 270 269 270 264 264 264 266 271 268 264 264 265 266 270 270 271 275 277 280 285 293 296 301 302 308 305 308 307 314
264 265 265 266 267 266 267 262 262 268 263 271 268 268 259 260 261 267 269 273 274 275 273 275 283 296 301 302 310 310 315 311 310
265 264 266 268 268 265 263 261 263 262 261 267 267 272 257 255 256 259 270 276 278 270 275 276 280 295 299 298 307 308 311 308 313
255 258 260 264 268 265 264 263 260 260 262 265 262 265 262 258 256 256 265 272 265 270 270 278 283 297 301 301 303 313 317 317 320
253 252 255 257 262 262 259 258 258 259 259 257 260 262 263 259 260 262 266 267 272 266 274 284 288 293 299 300 303 309 311 323 321
254 252 252 252 249 254 252 251 254 256 250 249 256 261 261 260 261 267 262 266 272 273 277 287 291 290 295 294 302 308 315 317 320
255 253 251 250 248 245 246 249 250 254 253 251 253 256 258 263 265 260 265 270 274 277 281 287 286 284 292 297 298 303 309 313 315
255 252 252 250 249 246 245 243 247 247 253 253 253 253 257 262 263 263 266 271 275 276 282 286 282 282 285 292 295 301 302 306 307
258 255 253 254 251 247 247 244 247 251 251 253 253 254 257 258 261 265 268 268 271 273 276 280 278 277 283 286 288 290 295 299 302
256 256 253 254 252 250 246 245 245 247 252 253 255 258 259 263 265 265 264 266 267 269 273 274 272 275 276 280 283 288 290 292 297
250 253 254 253 252 250 248 245 246 246 247 251 251 247 252 257 258 258 262 266 266 266 267 266 271 273 274 277 280 283 286 289 292
249 249 252 252 252 251 248 247 247 246 245 245 250 252 248 249 256 260 267 275 270 267 268 267 270 272 275 279 280 283 285 288 291
Height
10871 10872 10874 10875 10876 10876 10876 10876 10875 10876 10876 10875 10874 10874 10873 10872 10871 10870 10867 10866 10865 10863 10862 10861 10858 10857 10854 10852 10849 10847 10844 10841 10838
10864 10865 10867 10869 10870 10871 10871 10871 10871 10871 10872 10871 10871 10869 10870 10868 10867 10867 10866 10864 10862 10860 10859 10857 10855 10853 10851 10848 10846 10844 10841 10839 10836
10859 10860 10861 10862 10864 10865 10866 10865 10865 10866 10867 10866 10866 10865 10865 10864 10863 10863 10862 10860 10858 10856 10856 10855 10852 10850 10848 10845 10842 10840 10838 10835 10833
10852 10854 10855 10856 10858 10859 10859 10859 10859 10860 10861 10861 10861 10861 10860 10859 10859 10858 10857 10855 10854 10852 10851 10850 10849 10846 10845 10842 10839 10837 10835 10832 10829
10845 10847 10849 10851 10853 10854 10853 10853 10853 10853 10854 10854 10854 10854 10855 10854 10854 10853 10852 10851 10850 10848 10847 10846 10844 10842 10840 10838 10834 10832 10830 10828 10825
10838 10840 10842 10843 10845 10847 10847 10847 10846 10846 10846 10846 10848 10848 10847 10847 10848 10848 10847 10845 10845 10844 10842 10841 10840 10838 10835 10833 10830 10828 10826 10823 10820
10830 10832 10834 10835 10837 10839 10839 10839 10839 10838 10837 10837 10839 10840 10840 10841 10841 10841 10841 10840 10839 10838 10837 10836 10834 10833 10830 10828 10826 10824 10822 10819 10815
10821 10823 10825 10826 10828 10829 10830 10830 10830 10829 10829 10829 10830 10833 10833 10833 10835 10835 10835 10834 10833 10832 10830 10830 10828 10827 10826 10824 10821 10819 10817 10813 10809
10815 10815 10816 10817 10819 10821 10822 10822 10820 10822 10822 10823 10823 10825 10826 10827 10828 10828 10828 10828 10828 10827 10826 10824 10824 10822 10821 10820 10817 10814 10811 10808 10805
10807 10807 10808 10809 10811 10813 10813 10812 10814 10815 10815 10816 10817 10818 10818 10819 10821 10821 10822 10822 10821 10820 10819 10818 10818 10817 10816 10815 10813 10809 10806 10803 10801
10799 10799 10799 10800 10802 10805 10804 10805 10807 10808 10808 10809 10810 10811 10813 10813 10814 10815 10816 10816 10815 10814 10813 10812 10812 10812 10811 10810 10808 10805 10801 10798 10796
10791 10792 10793 10791 10794 10797 10797 10799 10798 10800 10801 10802 10802 10804 10806 10807 10808 10808 10809 10809 10809 10809 10808 10807 10806 10805 10805 10804 10802 10799 10797 10794 10791
10781 10783 10784 10785 10788 10788 10790 10791 10790 10792 10793 10795 10796 10797 10798 10799 10801 10802 10802 10802 10802 10802 10802 10801 10799 10799 10798 10796 10795 10793 10791 10788 10787
10770 10772 10774 10776 10779 10781 10781 10782 10782 10783 10786 10787 10788 10789 10790 10791 10793 10795 10794 10794 10795 10794 10794 10794 10793 10792 10790 10789 10788 10786 10784 10783 10780
10760 10760 10761 10764 10767 10769 10771 10772 10773 10774 10775 10777 10779 10780 10782 10783 10785 10787 10786 10787 10787 10786 10786 10786 10785 10784 10782 10781 10780 10779 10777 10776 10774
10747 10748 10748 10750 10753 10756 10759 10761 10762 10764 10764 10767 10768 10771 10773 10773 10773 10777 10778 10778 10779 10777 10778 10778 10777 10776 10774 10772 10770 10769 10769 10768 10766
10730 10737 10737 10738 10740 10743 10745 10748 10750 10751 10754 10755 10756 10760 10763 10761 10762 10765 10766 10767 10769 10769 10769 10769 10768 10767 10765 10764 10763 10762 10761 10759 10758
10713 10719 10724 10725 10726 10729 10731 10734 10737 10738 10739 10741 10745 10748 10750 10747 10749 10752 10755 10755 10756 10756 10758 10759 10758 10757 10755 10754 10753 10752 10751 10750 10749
10693 10699 10705 10710 10712 10715 10716 10717 10720 10723 10726 10726 10730 10734 10737 10736 10737 10739 10740 10743 10744 10743 10745 10748 10748 10746 10744 10744 10743 10742 10741 10740 10738
10673 10680 10685 10691 10696 10698 10700 10701 10705 10708 10710 10712 10713 10718 10724 10726 10727 10725 10728 10730 10727 10731 10732 10732 10733 10733 10734 10732 10731 10730 10729 10727 10725